Tracking 33208 objects as of 14-Feb-2026
HD Live streaming from Space Station
objects crossing your sky now

STARLINK-5030

Track STARLINK-5030 now!
10-day predictions
STARLINK-5030 is classified as:


NORAD ID: 55418
Int'l Code: 2023-014AD
Perigee: 577.0 km
Apogee: 581.4 km
Inclination: 70.0 °
Period: 96.1 minutes
Semi major axis: 6950 km
RCS: Unknown
Launch date: January 31, 2023
Source: United States (US)
Launch site: AIR FORCE WESTERN TEST RANGE (AFWTR)
Your satellite tracking list
Your tracking list is empty




NASA's NSSDC Master Catalog

Two Line Element Set (TLE):
1 55418U 23014AD  26045.46862683  .00000063  00000-0  13037-4 0  9990
2 55418  70.0008 143.0185 0003213 272.9438  87.1353 14.98331899168081
Source of the keplerian elements: AFSPC